Weather History for Rogers, AR

Change the Weather History Date:

Friday, July 4, 2014

  Actual Average Record
Temperature  
Mean Temperature 72 °F -  
Max Temperature 82 °F 82 °F 100 °F (2012)
Min Temperature 61 °F 66 °F 60 °F (1997)
Cooling Degree Days 6    
Growing Degree Days 22 (Base 50)    
Moisture  
Dew Point 61 °F    
Average Humidity 77    
Maximum Humidity 96    
Minimum Humidity 49    
Precipitation  
Precipitation 0.00 in - - ()
Sea Level Pressure  
Sea Level Pressure 30.24 in    
Wind  
Wind Speed 5 mph (ESE)    
Max Wind Speed 9 mph    
Max Gust Speed -    
Visibility 8 miles    
Events      
Averages and records for this station are not official NWS values.
T = Trace of Precipitation, MM = Missing Value Source: NWS Daily Summary

Daily Weather History Graph

Daily Weather History Graph

Search for Another Location

Airport:

Trip Planner

Search our weather history database for the weather conditions in past years. The results will help you decide how hot, cold, wet, or windy it might be!

Date:

Astronomy

Jul. 04, 2014 Rise Set
Actual Time 6:03 AM CDT 8:37 PM CDT
Civil Twilight 5:33 AM CDT 9:08 PM CDT
Nautical Twilight 4:55 AM CDT 9:45 PM CDT
Astronomical Twilight 4:14 AM CDT 10:27 PM CDT
Moon 12:48 PM CDT (7/4) 12:11 AM CDT (7/4)
Length of Visible Light 15h 34m
Length of Day
14h 34m
Waxing Crescent, 42% of the Moon is Illuminated
Jul 4
Waxing Crescent
Jul 5
First Quarter
Jul 12
Full
Jul 18
Last Quarter
Jul 26
New

Hourly Weather History & Observations

Time (CDT) Temp. Heat Index Dew Point Humidity Pressure Visibility Wind Dir Wind Speed Gust Speed Precip Events Conditions
12:57 AM 63.0 °F - 60.1 °F 90% 30.23 in 10.0 mi ESE 5.8 mph - N/A   Clear
1:57 AM 63.0 °F - 60.1 °F 90% 30.23 in 10.0 mi East 3.5 mph - N/A   Clear
2:57 AM 62.1 °F - 60.1 °F 93% 30.24 in 10.0 mi Calm Calm - N/A   Mostly Cloudy
3:57 AM 61.0 °F - 59.0 °F 93% 30.23 in 10.0 mi Calm Calm - N/A   Clear
4:57 AM 63.0 °F - 61.0 °F 93% 30.23 in 10.0 mi ESE 3.5 mph - N/A   Clear
5:07 AM 62.6 °F - 60.8 °F 94% 30.26 in 6.0 mi ESE 4.6 mph - N/A   Partly Cloudy
5:13 AM 62.6 °F - 60.8 °F 94% 30.26 in 2.0 mi ESE 4.6 mph - N/A   Mostly Cloudy
5:17 AM 62.6 °F - 60.8 °F 94% 30.26 in 1.5 mi ESE 5.8 mph - N/A   Mostly Cloudy
5:22 AM 62.6 °F - 60.8 °F 94% 30.27 in 1.0 mi East 5.8 mph - N/A   Mostly Cloudy
5:27 AM 62.6 °F - 60.8 °F 94% 30.27 in 0.8 mi East 4.6 mph - N/A   Mostly Cloudy
5:32 AM 62.6 °F - 60.8 °F 94% 30.27 in 1.0 mi ESE 5.8 mph - N/A   Overcast
5:36 AM 62.6 °F - 60.8 °F 94% 30.27 in 1.5 mi ESE 4.6 mph - N/A   Overcast
5:40 AM 62.6 °F - 60.8 °F 94% 30.27 in 3.0 mi ESE 4.6 mph - N/A   Mostly Cloudy
5:50 AM 62.6 °F - 60.8 °F 94% 30.27 in 10.0 mi ESE 3.5 mph - N/A   Scattered Clouds
5:57 AM 62.1 °F - 61.0 °F 96% 30.24 in 10.0 mi ESE 4.6 mph - N/A   Partly Cloudy
6:57 AM 63.0 °F - 59.0 °F 87% 30.25 in 10.0 mi ESE 6.9 mph - N/A   Clear
7:57 AM 66.9 °F - 60.1 °F 79% 30.26 in 10.0 mi ESE 8.1 mph - N/A   Clear
8:57 AM 70.0 °F - 60.1 °F 71% 30.27 in 10.0 mi ESE 9.2 mph - N/A   Clear
9:57 AM 73.9 °F - 61.0 °F 64% 30.27 in 10.0 mi SE 8.1 mph - N/A   Clear
11:57 AM 77.0 °F - 61.0 °F 58% 30.27 in 10.0 mi SE 5.8 mph - N/A   Mostly Cloudy
12:57 PM 79.0 °F - 61.0 °F 54% 30.26 in 10.0 mi East 8.1 mph - N/A   Partly Cloudy
1:57 PM 80.1 °F 80.9 °F 60.1 °F 50% 30.24 in 10.0 mi East 6.9 mph - N/A   Partly Cloudy
2:57 PM 81.0 °F 81.7 °F 61.0 °F 50% 30.23 in 10.0 mi East 4.6 mph - N/A   Mostly Cloudy
3:57 PM 82.0 °F 82.7 °F 61.0 °F 49% 30.22 in 10.0 mi Variable 6.9 mph - N/A   Partly Cloudy
4:57 PM 82.0 °F 82.7 °F 61.0 °F 49% 30.20 in 10.0 mi ENE 4.6 mph - N/A   Partly Cloudy
5:57 PM 81.0 °F 81.7 °F 61.0 °F 50% 30.19 in 10.0 mi ESE 5.8 mph - N/A   Scattered Clouds
6:57 PM 81.0 °F 82.2 °F 63.0 °F 54% 30.19 in 10.0 mi ESE 5.8 mph - N/A   Mostly Cloudy
7:57 PM 79.0 °F - 64.9 °F 62% 30.19 in 10.0 mi ESE 4.6 mph - N/A   Overcast
8:57 PM 77.0 °F - 64.0 °F 64% 30.19 in 10.0 mi South 4.6 mph - N/A   Overcast
9:57 PM 73.9 °F - 64.9 °F 73% 30.19 in 10.0 mi SE 4.6 mph - N/A   Partly Cloudy
10:57 PM 72.0 °F - 64.0 °F 76% 30.20 in 10.0 mi ESE 5.8 mph - N/A   Partly Cloudy
11:57 PM 72.0 °F - 63.0 °F 73% 30.21 in 10.0 mi ESE 8.1 mph - N/A   Overcast